Back to catalog

COSMOS 2486

AliveNavigationSSO
NORAD 39177·PAYLOAD·🇷🇺 Russia

Launched Jun 7, 2013 from Plesetsk Cosmodrome

Loading…

Next Passes (next 24 hours)

TLE

FreshSource: Space-Track

Epoch: Sep 14, 2026, 14:44 UTC

1 39177U 13028A   26257.61423437 -.00000049  00000-0 -11294-5 0  9990
2 39177  98.0253 221.5828 0012246  95.8246 264.4349 14.56224103704396

Track COSMOS 2486 in real time with AllMySat

Download on the App Store